MAS1 EGLL-WMKK

Flight info

Callsign MAS1
Flight time N/A
Altitude 33000
Route BPK Q295 MATCH DCT REDFA DCT TACHA DCT KUMER DCT OMELO DCT HAFAF DCT KEKED DCT SAT DCT VAMES DCT DOKUD DCT URELA DCT REVDA DCT UDROS UM859 KARDE UL851 OLUPO/N0493F350 UL851 TBN UR317 REBLO M11 LUSAL N701 LARGI B701 TUGTA A909 ABDAN A846 RANAH L750 GODSI/N0495F370 L750 ZB G202 RK P628 IBANI L510 GURVI T1 BBS L759 LIBDI/N0490F390 L759 PUT B579 VPL Y503 RINBA Y507 KAKAK KAKAK1G
Aircraft A359/H-SDE2E3GHIJ3J4J5LM1ORWXY/LB1D1

Departure

Time N/A
Airport London Heathrow Airport (EGLL)

Arrival

Time 2026-05-08 08:34
Airport Kuala Lumpur International Airport (WMKK)
Time Latitude Longitude Altitude Speed Heading
2026-05-08 06:43 10.08748 96.44912 38880 ft 488 kts 131°
2026-05-08 06:43 10.06498 96.47507 38877 ft 488 kts 130°
2026-05-08 06:43 10.02000 96.52693 38876 ft 490 kts 130°
2026-05-08 06:44 9.97197 96.57625 38873 ft 491 kts 136°
2026-05-08 06:44 9.92207 96.62358 38876 ft 491 kts 136°
2026-05-08 06:45 9.87211 96.67035 38874 ft 491 kts 136°
2026-05-08 06:45 9.82187 96.71740 38875 ft 491 kts 136°
2026-05-08 06:46 9.77164 96.76452 38874 ft 491 kts 136°
2026-05-08 06:46 9.72149 96.81159 38876 ft 490 kts 136°
2026-05-08 06:47 9.67144 96.85853 38875 ft 490 kts 137°
2026-05-08 06:47 9.62153 96.90534 38872 ft 491 kts 137°
2026-05-08 06:48 9.57121 96.95251 38873 ft 492 kts 136°
2026-05-08 06:48 9.52099 96.99955 38873 ft 492 kts 137°
2026-05-08 06:49 9.47061 97.04672 38873 ft 492 kts 136°
2026-05-08 06:49 9.42034 97.09378 38872 ft 492 kts 137°
2026-05-08 06:50 9.37031 97.14059 38873 ft 493 kts 136°
2026-05-08 06:50 9.31965 97.18797 38870 ft 496 kts 136°
2026-05-08 06:51 9.26877 97.23553 38870 ft 497 kts 136°
2026-05-08 06:51 9.21798 97.28299 38870 ft 497 kts 136°
2026-05-08 06:52 9.16757 97.33009 38865 ft 497 kts 136°
2026-05-08 06:52 9.11678 97.37750 38865 ft 497 kts 136°
2026-05-08 06:53 9.06593 97.42497 38864 ft 497 kts 136°
2026-05-08 06:53 9.01515 97.47234 38864 ft 497 kts 136°
2026-05-08 06:54 8.96443 97.51965 38861 ft 494 kts 137°
2026-05-08 06:54 8.91400 97.56666 38861 ft 493 kts 137°
2026-05-08 06:55 8.86349 97.61373 38857 ft 494 kts 136°
2026-05-08 06:55 8.81295 97.66075 38858 ft 497 kts 136°
2026-05-08 06:56 8.76195 97.70801 38858 ft 497 kts 136°
2026-05-08 06:56 8.71097 97.75523 38857 ft 497 kts 136°
2026-05-08 06:57 8.66862 97.79445 38857 ft 497 kts 136°
2026-05-08 06:57 8.61768 97.84165 38856 ft 497 kts 136°
2026-05-08 06:58 8.56666 97.88890 38854 ft 497 kts 136°
2026-05-08 06:58 8.51566 97.93611 38855 ft 497 kts 136°
2026-05-08 06:59 8.46464 97.98336 38859 ft 497 kts 136°
2026-05-08 06:59 8.41411 98.03007 38857 ft 494 kts 136°
2026-05-08 07:00 8.36307 98.07715 38848 ft 494 kts 136°
2026-05-08 07:00 8.31268 98.12364 38851 ft 494 kts 136°
2026-05-08 07:01 8.26194 98.17046 38850 ft 494 kts 136°
2026-05-08 07:01 8.21115 98.21732 38854 ft 496 kts 136°
2026-05-08 07:02 8.16004 98.26445 38858 ft 497 kts 136°
2026-05-08 07:02 8.10930 98.31124 38854 ft 497 kts 136°
2026-05-08 07:03 8.05645 98.35646 38857 ft 497 kts 140°
2026-05-08 07:03 8.00257 98.39963 38850 ft 493 kts 140°
2026-05-08 07:04 7.94916 98.44276 38831 ft 492 kts 140°
2026-05-08 07:04 7.89597 98.48632 38829 ft 491 kts 139°
2026-05-08 07:05 7.84289 98.53002 38827 ft 491 kts 139°
2026-05-08 07:05 7.79021 98.57338 38829 ft 491 kts 139°
2026-05-08 07:06 7.73690 98.61723 38831 ft 491 kts 139°
2026-05-08 07:06 7.68430 98.66054 38833 ft 491 kts 139°
2026-05-08 07:07 7.63126 98.70414 38833 ft 492 kts 139°
2026-05-08 07:07 7.57804 98.74786 38830 ft 491 kts 140°
2026-05-08 07:08 7.52538 98.79113 38833 ft 491 kts 140°
2026-05-08 07:08 7.47240 98.83465 38838 ft 491 kts 140°
2026-05-08 07:09 7.41946 98.87818 38836 ft 490 kts 140°
2026-05-08 07:09 7.36647 98.92158 38835 ft 490 kts 140°
2026-05-08 07:10 7.31351 98.96494 38840 ft 490 kts 140°
2026-05-08 07:10 7.26056 99.00832 38839 ft 490 kts 140°
2026-05-08 07:11 7.20768 99.05164 38841 ft 490 kts 140°
2026-05-08 07:11 7.15508 99.09471 38829 ft 490 kts 140°
2026-05-08 07:12 7.10198 99.13819 38833 ft 493 kts 140°
2026-05-08 07:12 7.04869 99.18180 38835 ft 493 kts 140°
2026-05-08 07:13 6.99541 99.22539 38832 ft 493 kts 140°
2026-05-08 07:13 6.94212 99.26898 38831 ft 493 kts 140°
2026-05-08 07:14 6.88888 99.31251 38832 ft 493 kts 140°
2026-05-08 07:14 6.83560 99.35607 38832 ft 493 kts 140°
2026-05-08 07:15 6.78261 99.39936 38833 ft 493 kts 140°
2026-05-08 07:15 6.72933 99.44290 38835 ft 493 kts 140°
2026-05-08 07:16 6.67611 99.48635 38829 ft 492 kts 140°
2026-05-08 07:16 6.62301 99.52971 38833 ft 491 kts 140°
2026-05-08 07:17 6.56996 99.57301 38830 ft 491 kts 140°
2026-05-08 07:17 6.51686 99.61634 38830 ft 491 kts 140°
2026-05-08 07:18 6.46369 99.65972 38828 ft 491 kts 140°
2026-05-08 07:18 6.41027 99.70223 38829 ft 491 kts 141°
2026-05-08 07:19 6.35674 99.74498 38830 ft 490 kts 136°
2026-05-08 07:19 6.30785 99.79267 38822 ft 489 kts 134°
2026-05-08 07:20 6.26008 99.84141 38824 ft 489 kts 133°
2026-05-08 07:20 6.21286 99.88999 38822 ft 490 kts 133°
2026-05-08 07:21 6.16515 99.93896 38827 ft 490 kts 133°
2026-05-08 07:21 6.11733 99.98789 38823 ft 490 kts 133°
2026-05-08 07:22 6.06959 100.03675 38820 ft 490 kts 133°
2026-05-08 07:22 6.02173 100.08564 38818 ft 490 kts 133°
2026-05-08 07:23 5.97424 100.13412 38822 ft 489 kts 133°
2026-05-08 07:23 5.92650 100.18287 38821 ft 488 kts 133°
2026-05-08 07:24 5.87884 100.23153 38819 ft 489 kts 133°
2026-05-08 07:24 5.83107 100.28030 38821 ft 490 kts 133°
2026-05-08 07:25 5.78354 100.32882 38821 ft 490 kts 133°
2026-05-08 07:26 5.71181 100.40201 38821 ft 490 kts 133°
2026-05-08 07:26 5.66397 100.45081 38817 ft 490 kts 133°
2026-05-08 07:27 5.61612 100.49960 38806 ft 490 kts 133°
2026-05-08 07:27 5.56847 100.54818 38808 ft 486 kts 133°
2026-05-08 07:28 5.52107 100.59648 38811 ft 486 kts 133°
2026-05-08 07:28 5.47372 100.64475 38815 ft 489 kts 133°
2026-05-08 07:29 5.42592 100.69344 38817 ft 490 kts 133°
2026-05-08 07:29 5.37231 100.73565 38830 ft 492 kts 149°
2026-05-08 07:30 5.30817 100.75958 38837 ft 496 kts 167°
2026-05-08 07:30 5.24002 100.77168 38830 ft 498 kts 170°
2026-05-08 07:31 5.17155 100.78192 38830 ft 497 kts 170°
2026-05-08 07:31 5.10362 100.79218 38833 ft 496 kts 169°
2026-05-08 07:32 5.03526 100.80285 38828 ft 496 kts 169°
2026-05-08 07:32 4.96704 100.81364 38829 ft 496 kts 169°
2026-05-08 07:33 4.89884 100.82451 38827 ft 496 kts 169°
2026-05-08 07:33 4.83048 100.83528 38826 ft 496 kts 169°
2026-05-08 07:34 4.76263 100.84597 38824 ft 496 kts 169°
2026-05-08 07:34 4.69439 100.85674 38820 ft 496 kts 169°
2026-05-08 07:35 4.62623 100.86749 38813 ft 496 kts 169°
2026-05-08 07:35 4.55802 100.87826 38819 ft 496 kts 169°
2026-05-08 07:36 4.48975 100.88916 38818 ft 496 kts 168°
2026-05-08 07:36 4.42510 100.91112 38816 ft 490 kts 153°
2026-05-08 07:37 4.36356 100.94058 38667 ft 487 kts 152°
2026-05-08 07:37 4.33338 100.95520 37949 ft 488 kts 152°
2026-05-08 07:37 4.30240 100.97025 37052 ft 492 kts 152°
2026-05-08 07:37 4.27177 100.98515 36214 ft 495 kts 152°
2026-05-08 07:38 4.24071 101.00027 35395 ft 498 kts 152°
2026-05-08 07:38 4.20940 101.01551 34604 ft 501 kts 152°
2026-05-08 07:38 4.17793 101.03083 33820 ft 504 kts 152°
2026-05-08 07:38 4.14632 101.04622 32934 ft 506 kts 152°
2026-05-08 07:39 4.11456 101.06168 32059 ft 508 kts 152°
2026-05-08 07:39 4.08264 101.07721 31188 ft 510 kts 152°
2026-05-08 07:39 4.05069 101.09276 30352 ft 511 kts 152°
2026-05-08 07:39 4.01861 101.10837 29421 ft 513 kts 152°
2026-05-08 07:40 3.98650 101.12400 28558 ft 512 kts 152°
2026-05-08 07:40 3.95501 101.13932 27928 ft 506 kts 152°
2026-05-08 07:40 3.92351 101.15464 27297 ft 501 kts 152°
2026-05-08 07:40 3.89235 101.16980 26672 ft 496 kts 152°
2026-05-08 07:41 3.86145 101.18482 26045 ft 491 kts 152°
2026-05-08 07:41 3.83088 101.19970 25425 ft 487 kts 152°
2026-05-08 07:41 3.80043 101.21452 24814 ft 483 kts 152°
2026-05-08 07:41 3.77051 101.22953 24172 ft 479 kts 149°
2026-05-08 07:42 3.74193 101.24657 23543 ft 476 kts 146°
2026-05-08 07:42 3.71397 101.26410 22844 ft 472 kts 146°
2026-05-08 07:42 3.69555 101.27570 22417 ft 469 kts 146°
2026-05-08 07:42 3.65898 101.29869 21626 ft 461 kts 146°
2026-05-08 07:43 3.63188 101.31569 21016 ft 456 kts 146°
2026-05-08 07:43 3.61422 101.32677 20634 ft 452 kts 146°
2026-05-08 07:43 3.57907 101.34880 19823 ft 446 kts 146°
2026-05-08 07:43 3.55290 101.36519 19209 ft 442 kts 146°
2026-05-08 07:44 3.53541 101.37615 18831 ft 439 kts 146°
2026-05-08 07:44 3.50170 101.39711 18595 ft 420 kts 148°
2026-05-08 07:44 3.48416 101.40575 18500 ft 411 kts 158°
2026-05-08 07:44 3.45688 101.41132 18352 ft 402 kts 176°
2026-05-08 07:45 3.42962 101.40746 18174 ft 394 kts 196°
2026-05-08 07:45 3.40559 101.39509 17982 ft 386 kts 216°
2026-05-08 07:45 3.38721 101.37614 17811 ft 376 kts 234°
2026-05-08 07:45 3.37590 101.35299 17634 ft 366 kts 253°
2026-05-08 07:46 3.37223 101.32828 17473 ft 354 kts 271°
2026-05-08 07:46 3.37417 101.30405 17305 ft 343 kts 277°
2026-05-08 07:46 3.37450 101.28056 17058 ft 334 kts 259°
2026-05-08 07:46 3.36576 101.25948 16731 ft 325 kts 232°
2026-05-08 07:47 3.35122 101.24288 16443 ft 319 kts 224°
2026-05-08 07:47 3.33549 101.22689 16054 ft 317 kts 224°
2026-05-08 07:47 3.31963 101.21207 15670 ft 315 kts 214°
2026-05-08 07:47 3.30092 101.20109 15300 ft 310 kts 204°
2026-05-08 07:48 3.28157 101.19170 14958 ft 307 kts 204°
2026-05-08 07:48 3.26234 101.18249 14634 ft 304 kts 203°
2026-05-08 07:48 3.24315 101.17393 14327 ft 299 kts 197°
2026-05-08 07:48 3.22308 101.16980 14029 ft 292 kts 184°
2026-05-08 07:49 3.20301 101.16761 13741 ft 288 kts 184°
2026-05-08 07:49 3.18309 101.16562 13426 ft 284 kts 184°
2026-05-08 07:49 3.16356 101.16374 13131 ft 279 kts 181°
2026-05-08 07:49 3.14450 101.16495 12843 ft 271 kts 167°
2026-05-08 07:50 3.12627 101.16906 12562 ft 266 kts 164°
2026-05-08 07:50 3.10877 101.17364 12300 ft 261 kts 161°
2026-05-08 07:50 3.09271 101.18159 12028 ft 256 kts 140°
2026-05-08 07:50 3.08152 101.19513 11760 ft 252 kts 115°
2026-05-08 07:51 3.07736 101.21192 11500 ft 251 kts 90°
2026-05-08 07:51 3.08078 101.22895 11234 ft 251 kts 66°
2026-05-08 07:51 3.09075 101.24330 10979 ft 253 kts 50°
2026-05-08 07:51 3.10091 101.25765 10714 ft 253 kts 62°
2026-05-08 07:52 3.10874 101.27341 10448 ft 252 kts 66°
2026-05-08 07:52 3.11597 101.28933 10184 ft 251 kts 67°
2026-05-08 07:52 3.12303 101.30513 9935 ft 252 kts 67°
2026-05-08 07:52 3.13036 101.32159 9843 ft 264 kts 66°
2026-05-08 07:53 3.13793 101.33859 9822 ft 269 kts 66°
2026-05-08 07:53 3.14545 101.35548 9817 ft 258 kts 66°
2026-05-08 07:53 3.15256 101.37143 9819 ft 247 kts 66°
2026-05-08 07:53 3.15951 101.38705 9829 ft 246 kts 66°
2026-05-08 07:54 3.16647 101.40269 9830 ft 247 kts 66°
2026-05-08 07:54 3.17343 101.41834 9824 ft 243 kts 67°
2026-05-08 07:54 3.18017 101.43349 9769 ft 234 kts 66°
2026-05-08 07:54 3.18673 101.44826 9479 ft 232 kts 66°
2026-05-08 07:55 3.19329 101.46306 9130 ft 232 kts 66°
2026-05-08 07:55 3.19983 101.47778 8838 ft 230 kts 66°
2026-05-08 07:55 3.20635 101.49246 8470 ft 231 kts 66°
2026-05-08 07:55 3.21285 101.50715 8135 ft 231 kts 67°
2026-05-08 07:56 3.21720 101.52227 7690 ft 228 kts 89°
2026-05-08 07:56 3.21378 101.53701 7258 ft 227 kts 121°
2026-05-08 07:56 3.20277 101.54788 6959 ft 224 kts 150°
2026-05-08 07:56 3.18839 101.55359 6505 ft 223 kts 170°
2026-05-08 07:57 3.17290 101.55481 5999 ft 224 kts 185°
2026-05-08 07:57 3.15854 101.54918 5444 ft 224 kts 219°
2026-05-08 07:57 3.14867 101.53725 5011 ft 223 kts 237°
2026-05-08 07:57 3.14103 101.52381 4564 ft 222 kts 240°
2026-05-08 07:58 3.13375 101.51025 4163 ft 219 kts 240°
2026-05-08 07:58 3.12662 101.49679 4037 ft 220 kts 241°
2026-05-08 07:58 3.11779 101.48441 4009 ft 218 kts 218°
2026-05-08 07:58 3.10439 101.47833 4048 ft 212 kts 188°
2026-05-08 07:59 3.08964 101.47715 4026 ft 211 kts 179°
2026-05-08 07:59 3.07536 101.47981 4025 ft 212 kts 162°
2026-05-08 07:59 3.06169 101.48530 4023 ft 212 kts 153°
2026-05-08 07:59 3.04877 101.49250 4019 ft 213 kts 148°
2026-05-08 08:00 3.03624 101.50052 4016 ft 215 kts 146°
2026-05-08 08:00 3.02382 101.50885 4020 ft 215 kts 146°
2026-05-08 08:00 3.01147 101.51722 4024 ft 213 kts 146°
2026-05-08 08:00 2.99913 101.52542 4024 ft 213 kts 146°
2026-05-08 08:01 2.98672 101.53365 4039 ft 215 kts 146°
2026-05-08 08:01 2.97437 101.54196 4042 ft 213 kts 146°
2026-05-08 08:01 2.96220 101.55022 4051 ft 211 kts 146°
2026-05-08 08:01 2.94995 101.55848 4055 ft 213 kts 146°
2026-05-08 08:02 2.93764 101.56677 4063 ft 213 kts 146°
2026-05-08 08:02 2.92541 101.57502 4068 ft 212 kts 146°
2026-05-08 08:02 2.91322 101.58324 3942 ft 210 kts 146°
2026-05-08 08:02 2.90123 101.59132 3703 ft 204 kts 146°
2026-05-08 08:03 2.88957 101.59919 3416 ft 200 kts 146°
2026-05-08 08:03 2.87813 101.60691 3138 ft 197 kts 146°
2026-05-08 08:03 2.86689 101.61449 2870 ft 193 kts 146°
2026-05-08 08:03 2.85591 101.62189 2634 ft 188 kts 146°
2026-05-08 08:04 2.84518 101.62913 2390 ft 183 kts 146°
2026-05-08 08:04 2.83481 101.63612 2133 ft 177 kts 147°
2026-05-08 08:04 2.82471 101.64293 1905 ft 171 kts 147°
2026-05-08 08:04 2.81516 101.64937 1698 ft 164 kts 147°
2026-05-08 08:05 2.80597 101.65556 1486 ft 154 kts 147°
2026-05-08 08:05 2.79738 101.66136 1290 ft 144 kts 147°
2026-05-08 08:05 2.78921 101.66687 1108 ft 139 kts 147°
2026-05-08 08:05 2.78115 101.67230 946 ft 140 kts 147°
2026-05-08 08:06 2.77304 101.67776 780 ft 140 kts 147°
2026-05-08 08:06 2.76477 101.68335 615 ft 147 kts 149°
2026-05-08 08:06 2.75608 101.68905 413 ft 152 kts 144°
2026-05-08 08:06 2.74829 101.69513 360 ft 155 kts 145°
2026-05-08 08:07 2.73836 101.70202 853 ft 183 kts 144°
2026-05-08 08:07 2.72796 101.70953 1986 ft 185 kts 150°
2026-05-08 08:07 2.71603 101.71347 2924 ft 174 kts 184°
2026-05-08 08:07 2.70557 101.70906 3511 ft 166 kts 226°
2026-05-08 08:08 2.70034 101.69848 3741 ft 178 kts 257°
2026-05-08 08:08 2.69894 101.68586 3832 ft 181 kts 263°
2026-05-08 08:08 2.69883 101.67381 3707 ft 167 kts 266°
2026-05-08 08:08 2.69901 101.66146 3850 ft 193 kts 268°
2026-05-08 08:09 2.69909 101.64678 3943 ft 227 kts 267°
2026-05-08 08:09 2.69925 101.62996 3963 ft 256 kts 270°
2026-05-08 08:09 2.69975 101.61140 3972 ft 274 kts 270°
2026-05-08 08:09 2.70039 101.59218 3973 ft 276 kts 273°
2026-05-08 08:10 2.70537 101.57373 3988 ft 276 kts 298°
2026-05-08 08:10 2.71720 101.55903 3997 ft 275 kts 316°
2026-05-08 08:10 2.73171 101.54624 3993 ft 276 kts 320°
2026-05-08 08:10 2.74647 101.53385 3989 ft 277 kts 320°
2026-05-08 08:11 2.76136 101.52146 3994 ft 280 kts 320°
2026-05-08 08:11 2.77635 101.50906 3992 ft 279 kts 320°
2026-05-08 08:11 2.79113 101.49687 3996 ft 279 kts 320°
2026-05-08 08:11 2.80601 101.48456 3990 ft 278 kts 320°
2026-05-08 08:12 2.82104 101.47219 4001 ft 280 kts 320°
2026-05-08 08:12 2.83600 101.45983 3996 ft 278 kts 320°
2026-05-08 08:12 2.85068 101.44769 4008 ft 266 kts 320°
2026-05-08 08:12 2.86590 101.43841 4016 ft 249 kts 342°
2026-05-08 08:13 2.88262 101.43726 4016 ft 241 kts 13°
2026-05-08 08:13 2.89749 101.44456 4018 ft 240 kts 42°
2026-05-08 08:13 2.90958 101.45619 4011 ft 242 kts 49°
2026-05-08 08:13 2.92090 101.46858 4006 ft 242 kts 49°
2026-05-08 08:14 2.93190 101.48085 4006 ft 228 kts 50°
2026-05-08 08:14 2.94060 101.49345 4013 ft 217 kts 71°
2026-05-08 08:14 2.94206 101.50790 3941 ft 208 kts 101°
2026-05-08 08:14 2.93868 101.52157 3751 ft 200 kts 108°
2026-05-08 08:15 2.93440 101.53491 3553 ft 204 kts 110°
2026-05-08 08:15 2.92986 101.54859 3529 ft 209 kts 110°
2026-05-08 08:15 2.92527 101.56240 3505 ft 209 kts 109°
2026-05-08 08:15 2.92012 101.57606 3498 ft 209 kts 119°
2026-05-08 08:16 2.90993 101.58624 3515 ft 208 kts 146°
2026-05-08 08:16 2.89766 101.59391 3490 ft 209 kts 149°
2026-05-08 08:16 2.88560 101.60168 3319 ft 203 kts 146°
2026-05-08 08:16 2.87415 101.60962 3063 ft 199 kts 146°
2026-05-08 08:17 2.86276 101.61730 2785 ft 195 kts 147°
2026-05-08 08:17 2.85161 101.62477 2530 ft 191 kts 146°
2026-05-08 08:17 2.84075 101.63211 2276 ft 186 kts 146°
2026-05-08 08:17 2.83017 101.63925 2041 ft 181 kts 147°
2026-05-08 08:18 2.81981 101.64624 1800 ft 178 kts 147°
2026-05-08 08:18 2.80999 101.65286 1608 ft 167 kts 147°
2026-05-08 08:18 2.80059 101.65919 1372 ft 158 kts 147°
2026-05-08 08:18 2.79167 101.66521 1189 ft 154 kts 147°
2026-05-08 08:19 2.78305 101.67102 980 ft 145 kts 147°
2026-05-08 08:19 2.77487 101.67652 803 ft 139 kts 146°
2026-05-08 08:19 2.76678 101.68197 658 ft 143 kts 145°
2026-05-08 08:19 2.75842 101.68761 471 ft 147 kts 144°
2026-05-08 08:20 2.75002 101.69353 293 ft 148 kts 146°
2026-05-08 08:20 2.74131 101.69911 94 ft 149 kts 144°
2026-05-08 08:20 2.73300 101.70458 64 ft 134 kts 144°
2026-05-08 08:20 2.72512 101.71029 327 ft 158 kts 141°
2026-05-08 08:21 2.71588 101.71789 1018 ft 180 kts 139°
2026-05-08 08:21 2.70592 101.72582 2073 ft 190 kts 147°
2026-05-08 08:21 2.69348 101.72927 2658 ft 188 kts 184°
2026-05-08 08:21 2.68187 101.72434 3195 ft 185 kts 222°
2026-05-08 08:22 2.67546 101.71300 3461 ft 199 kts 258°
2026-05-08 08:22 2.67680 101.69853 3507 ft 226 kts 290°
2026-05-08 08:22 2.68407 101.68338 3476 ft 256 kts 298°
2026-05-08 08:22 2.69330 101.66733 3475 ft 273 kts 300°
2026-05-08 08:23 2.70293 101.65102 3483 ft 277 kts 300°
2026-05-08 08:23 2.71290 101.63427 3483 ft 276 kts 300°
2026-05-08 08:23 2.72252 101.61792 3498 ft 276 kts 300°
2026-05-08 08:23 2.73228 101.60141 3501 ft 276 kts 300°
2026-05-08 08:24 2.74209 101.58486 3499 ft 276 kts 300°
2026-05-08 08:24 2.75263 101.56875 3499 ft 276 kts 309°
2026-05-08 08:24 2.76637 101.55526 3484 ft 277 kts 319°
2026-05-08 08:24 2.78112 101.54282 3501 ft 279 kts 320°
2026-05-08 08:25 2.79598 101.53035 3486 ft 277 kts 320°
2026-05-08 08:25 2.81065 101.51811 3497 ft 278 kts 320°
2026-05-08 08:25 2.82559 101.50579 3491 ft 280 kts 320°
2026-05-08 08:25 2.84062 101.49340 3504 ft 280 kts 320°
2026-05-08 08:26 2.85562 101.48100 3503 ft 278 kts 320°
2026-05-08 08:26 2.87059 101.46879 3510 ft 277 kts 323°
2026-05-08 08:26 2.88748 101.46100 3510 ft 259 kts 350°
2026-05-08 08:26 2.90453 101.46206 3514 ft 236 kts 22°
2026-05-08 08:27 2.91721 101.47085 3520 ft 215 kts 55°
2026-05-08 08:27 2.92246 101.48428 3520 ft 209 kts 90°
2026-05-08 08:27 2.92125 101.49878 3514 ft 210 kts 99°
2026-05-08 08:27 2.92131 101.51355 3508 ft 214 kts 86°
2026-05-08 08:28 2.92235 101.52338 3519 ft 215 kts 86°
2026-05-08 08:28 2.92487 101.54299 3518 ft 214 kts 85°
2026-05-08 08:28 2.92677 101.55775 3518 ft 214 kts 85°
2026-05-08 08:28 2.92548 101.57222 3510 ft 209 kts 117°
2026-05-08 08:29 2.91628 101.58238 3535 ft 189 kts 147°
2026-05-08 08:29 2.90529 101.58891 3549 ft 182 kts 150°
2026-05-08 08:29 2.89794 101.59333 3526 ft 184 kts 148°
2026-05-08 08:29 2.88731 101.60060 3354 ft 184 kts 145°
2026-05-08 08:30 2.87696 101.60775 3123 ft 181 kts 147°
2026-05-08 08:30 2.86669 101.61461 2883 ft 175 kts 147°
2026-05-08 08:30 2.84749 101.62757 2427 ft 158 kts 146°
2026-05-08 08:31 2.83841 101.63369 2230 ft 157 kts 147°
2026-05-08 08:31 2.82932 101.63981 2017 ft 158 kts 147°
2026-05-08 08:31 2.82020 101.64596 1803 ft 158 kts 147°
2026-05-08 08:31 2.81102 101.65215 1615 ft 160 kts 146°
2026-05-08 08:32 2.80185 101.65834 1387 ft 158 kts 146°
2026-05-08 08:32 2.79298 101.66432 1201 ft 148 kts 147°
2026-05-08 08:32 2.78475 101.66988 1017 ft 139 kts 147°
2026-05-08 08:32 2.77674 101.67526 866 ft 138 kts 148°
2026-05-08 08:33 2.76866 101.68063 673 ft 140 kts 146°
2026-05-08 08:33 2.76046 101.68623 521 ft 145 kts 144°
2026-05-08 08:33 2.75202 101.69197 321 ft 148 kts 143°
2026-05-08 08:33 2.74362 101.69773 125 ft 148 kts 143°
2026-05-08 08:34 2.73540 101.70347 56 ft 135 kts 146°
2026-05-08 08:34 2.72925 101.70744 54 ft 62 kts 148°
2026-05-08 08:34 2.72719 101.70889 54 ft 31 kts 135°
2026-05-08 08:34 2.72603 101.71067 53 ft 30 kts 112°
2026-05-08 08:35 2.72682 101.71213 53 ft 24 kts
2026-05-08 08:35 2.72827 101.71145 52 ft 23 kts 326°
2026-05-08 08:35 2.72960 101.71054 53 ft 23 kts 325°
2026-05-08 08:35 2.73093 101.70965 53 ft 23 kts 326°
2026-05-08 08:36 2.73227 101.70874 57 ft 23 kts 326°
2026-05-08 08:36 2.73361 101.70786 58 ft 23 kts 327°
2026-05-08 08:36 2.73502 101.70746 63 ft 20 kts 32°
2026-05-08 08:36 2.73579 101.70837 67 ft 15 kts 55°
2026-05-08 08:37 2.73639 101.70924 84 ft 16 kts 56°
2026-05-08 08:37 2.73713 101.71037 83 ft 23 kts 56°
2026-05-08 08:37 2.73809 101.71177 84 ft 25 kts 55°
2026-05-08 08:37 2.73911 101.71324 82 ft 26 kts 56°
2026-05-08 08:38 2.74011 101.71478 83 ft 27 kts 57°
2026-05-08 08:38 2.74117 101.71636 85 ft 28 kts 55°
2026-05-08 08:38 2.74225 101.71797 82 ft 28 kts 57°
2026-05-08 08:38 2.74336 101.71963 84 ft 29 kts 56°
2026-05-08 08:39 2.74467 101.72104 87 ft 26 kts
2026-05-08 08:39 2.74594 101.72027 87 ft 22 kts 324°
2026-05-08 08:39 2.74724 101.71940 88 ft 24 kts 326°
2026-05-08 08:39 2.74865 101.71846 86 ft 25 kts 326°
2026-05-08 08:40 2.75015 101.71747 85 ft 27 kts 327°
2026-05-08 08:40 2.75156 101.71632 83 ft 20 kts 289°
2026-05-08 08:40 2.75106 101.71546 84 ft 15 kts 234°
2026-05-08 08:40 2.75059 101.71487 85 ft 5 kts 211°
2026-05-08 08:41 2.75025 101.71495 85 ft 6 kts 149°
2026-05-08 08:41 2.75002 101.71509 85 ft 0 kts 148°
2026-05-08 08:41 2.74997 101.71512 84 ft 4 kts 147°
2026-05-08 08:41 2.74994 101.71514 85 ft 0 kts 147°